Dundee, United Kingdom

3:10 PM BST on September 20, 2017 (GMT +0100)
Dundee

Weather History for EGPN - April, 2013

Change the Weather History Date:

Tuesday, April 30, 2013

  Actual Average Record
Temperature  
Mean Temperature 48 °F -  
Max Temperature 55 °F 56 °F 64 °F (1997)
Min Temperature 42 °F 46 °F 37 °F (2002)
Degree Days  
Heating Degree Days 16    
Moisture  
Dew Point 34 °F    
Average Humidity 54    
Maximum Humidity 71    
Minimum Humidity 35    
Precipitation  
Precipitation 0.00 in - - ()
Sea Level Pressure  
Sea Level Pressure 30.23 in    
Wind  
Wind Speed 9 mph ()    
Max Wind Speed 20 mph    
Max Gust Speed -    
Visibility 6.2 miles    
Events      
Averages and records for this station are not official NWS values.
T = Trace of Precipitation, MM = Missing Value Source: Averaged Metar Reports

Daily Weather History Graph

Daily Weather History Graph

Search for Another Location

Airport or City:

Trip Planner

Search our weather history database for the weather conditions in past years. The results will help you decide how hot, cold, wet, or windy it might be!

Date:

Astronomy

Apr. 30, 2013 Rise Set
Actual Time 5:28 AM BST 8:51 PM BST
Civil Twilight 4:43 AM BST 9:36 PM BST
Nautical Twilight 3:41 AM BST 10:39 PM BST
Astronomical Twilight 1:59 AM BST 12:28 AM BST
Moon 1:18 AM BST (4/30) 9:26 AM BST (4/30)
Length of Visible Light 16h 53m
Length of Day
15h 23m
Waning Gibbous, 72% of the Moon is Illuminated
Apr 30
Waning Gibbous
May 2
Last Quarter
May 10
New
May 18
First Quarter
May 25
Full

Hourly Weather History & Observations

Time (BST) Temp. Windchill Dew Point Humidity Pressure Visibility Wind Dir Wind Speed Gust Speed Precip Events Conditions
7:50 AM 42.8 °F 37.0 °F 30.2 °F 61% 30.24 in - West 10.4 mph - N/A   Clear
8:20 AM 44.6 °F 38.8 °F 32.0 °F 61% 30.24 in - WNW 11.5 mph - N/A   Clear
8:50 AM 44.6 °F 40.7 °F 28.4 °F 53% 30.27 in - West 6.9 mph - N/A   Clear
9:20 AM 46.4 °F 43.5 °F 30.2 °F 53% 30.27 in - West 5.8 mph - N/A   Clear
9:50 AM 48.2 °F - 35.6 °F 62% 30.27 in - WSW 5.8 mph - N/A   Clear
10:20 AM 50.0 °F - 33.8 °F 54% 30.27 in - SW 4.6 mph - N/A   Clear
10:50 AM 50.0 °F - 30.2 °F 47% 30.27 in 6.2 mi WSW 9.2 mph - N/A   Partly Cloudy
11:20 AM 50.0 °F - 35.6 °F 58% 30.27 in 6.2 mi SW 9.2 mph - N/A   Partly Cloudy
11:50 AM 50.0 °F - 32.0 °F 50% 30.27 in 6.2 mi SSW 6.9 mph - N/A   Partly Cloudy
12:20 PM 50.0 °F - 33.8 °F 54% 30.27 in 6.2 mi SSW 9.2 mph - N/A   Partly Cloudy
12:50 PM 53.6 °F - 32.0 °F 44% 30.27 in 6.2 mi SW 8.1 mph - N/A   Partly Cloudy
1:20 PM 55.4 °F - 32.0 °F 41% 30.27 in 6.2 mi SW 10.4 mph - N/A   Partly Cloudy
1:50 PM 53.6 °F - 26.6 °F 35% 30.27 in 6.2 mi SSW 6.9 mph - N/A   Partly Cloudy
2:20 PM 55.4 °F - 33.8 °F 44% 30.24 in 6.2 mi SSW 6.9 mph - N/A   Partly Cloudy
2:50 PM 53.6 °F - 30.2 °F 41% 30.24 in 6.2 mi SSW 11.5 mph - N/A   Partly Cloudy
3:20 PM 53.6 °F - 37.4 °F 54% 30.24 in 6.2 mi SW 10.4 mph - N/A   Partly Cloudy
3:50 PM 53.6 °F - 35.6 °F 51% 30.21 in 6.2 mi SW 11.5 mph - N/A   Scattered Clouds
4:20 PM 53.6 °F - 35.6 °F 51% 30.21 in 6.2 mi SW 13.8 mph - N/A   Scattered Clouds
4:50 PM 53.6 °F - 35.6 °F 51% 30.21 in 6.2 mi SW 15.0 mph - N/A   Scattered Clouds
5:20 PM 53.6 °F - 39.2 °F 58% 30.21 in 6.2 mi WSW 15.0 mph - N/A   Scattered Clouds
5:50 PM 53.6 °F - 37.4 °F 54% 30.21 in 6.2 mi WSW 16.1 mph - N/A   Scattered Clouds
6:20 PM 51.8 °F - 37.4 °F 58% 30.21 in 6.2 mi SW 13.8 mph - N/A   Partly Cloudy
6:50 PM 51.8 °F - 37.4 °F 58% 30.18 in 6.2 mi WSW 15.0 mph - N/A   Partly Cloudy
7:20 PM 51.8 °F - 39.2 °F 62% 30.18 in 6.2 mi WSW 13.8 mph - N/A   Partly Cloudy
7:50 PM 51.8 °F - 37.4 °F 58% 30.18 in 6.2 mi West 16.1 mph - N/A   Partly Cloudy
8:20 PM 50.0 °F - 37.4 °F 62% 30.18 in 6.2 mi WSW 17.3 mph - N/A   Partly Cloudy
8:50 PM 50.0 °F - 35.6 °F 58% 30.18 in 6.2 mi WSW 19.6 mph - N/A   Partly Cloudy
9:20 PM 48.2 °F - 37.4 °F 66% 30.18 in 6.2 mi WSW 12.7 mph - N/A   Partly Cloudy
9:50 PM 48.2 °F - 39.2 °F 71% 30.18 in 6.2 mi WSW 15.0 mph - N/A   Partly Cloudy